FW9185 Weather Reports


time (UTC)temp
F
wind
direction
speed
knots
gust
knots
rain 1hr
in
rain 24hr
in
rain mn
in
humidity
%
barometer
mb
20260506050914 66 253 6.1 7.0 0.00 0.17 0.17 48 1012.4
20260506050412 66 258 5.2 7.0 0.00 0.17 0.17 48 1012.8
20260506044902 66 239 5.2 6.1 0.00 0.17 0.17 47 1012.4
20260506044400 66 274 7.0 7.8 0.00 0.17 0.17 47 1012.3
20260506043857 66 268 4.3 5.2 0.00 0.17 0.17 46 1012.4
20260506043354 67 269 4.3 5.2 0.00 0.17 0.17 46 1012.2
20260506042852 67 273 6.1 7.8 0.00 0.17 0.17 46 1012.3
20260506042351 67 283 4.3 5.2 0.00 0.17 0.17 45 1012.3
20260506041849 67 270 7.0 7.8 0.00 0.17 0.17 45 1012.0
20260506041346 67 281 6.1 7.0 0.00 0.17 0.17 45 1012.0
20260506040843 67 282 6.1 7.0 0.00 0.17 0.17 45 1011.6
20260506040340 67 243 6.1 7.8 0.00 0.17 0.17 44 1011.7
20260506035836 67 210 0.9 0.9 0.00 0.17 0.17 43 1011.6
20260506035334 67 195 2.6 2.6 0.00 0.17 0.17 41 1011.4
20260506034831 67 232 3.5 4.3 0.00 0.17 0.17 39 1011.6
20260506034328 67 221 2.6 2.6 0.00 0.17 0.17 38 1011.1
20260506033825 67 228 3.5 4.3 0.00 0.17 0.17 37 1011.4
20260506033322 68 199 3.5 4.3 0.00 0.17 0.17 37 1011.2
20260506032819 68 253 2.6 4.3 0.00 0.17 0.17 37 1011.4
20260506032316 68 214 2.6 2.6 0.00 0.17 0.17 36 1011.0
20260506031813 68 226 2.6 2.6 0.00 0.17 0.17 35 1011.1
20260506031310 69 220 2.6 2.6 0.00 0.17 0.17 35 1010.8
20260506030808 69 226 4.3 5.2 0.00 0.17 0.17 34 1011.0
20260506030306 69 261 4.3 5.2 0.00 0.17 0.17 33 1011.0
20260506025802 69 280 5.2 6.1 0.00 0.17 0.17 33 1010.9
20260506025258 69 254 7.0 7.0 0.00 0.17 0.17 33 1010.6
20260506024755 69 232 7.8 8.7 0.00 0.17 0.17 32 1010.5
20260506024252 69 248 5.2 6.1 0.00 0.17 0.17 32 1010.5
20260506023748 69 258 6.1 7.0 0.00 0.17 0.17 31 1010.3
20260506023246 70 270 7.0 8.7 0.00 0.17 0.17 31 1010.4
20260506022742 70 261 6.1 6.1 0.00 0.17 0.17 31 1010.2
20260506022240 70 259 6.1 7.0 0.00 0.17 0.17 31 1010.3
20260506021738 70 235 5.2 6.1 0.00 0.17 0.17 32 1010.0
20260506021235 70 229 5.2 6.1 0.00 0.17 0.17 33 1010.1
20260506020731 70 245 6.1 6.1 0.00 0.17 0.17 32 1009.8
20260506020229 70 281 6.1 7.8 0.00 0.17 0.17 32 1010.0
20260506015727 70 262 6.1 7.8 0.00 0.17 0.17 31 1009.8
20260506015224 71 247 7.8 8.7 0.00 0.17 0.17 32 1009.8
20260506014721 71 244 10.4 13.0 0.00 0.17 0.17 32 1009.5
20260506014217 71 277 8.7 13.0 0.00 0.17 0.17 32 1009.6
20260506013715 71 278 9.6 11.3 0.00 0.17 0.17 32 1009.7
20260506013212 71 257 8.7 11.3 0.00 0.17 0.17 33 1009.5
20260506012708 71 258 7.8 9.6 0.00 0.17 0.17 33 1009.4
20260506012205 72 268 8.7 12.2 0.00 0.17 0.17 32 1009.4
20260506011702 73 270 9.6 12.2 0.00 0.17 0.17 32 1009.4
20260506011158 73 253 7.8 8.7 0.00 0.17 0.17 31 1009.4
20260506010657 73 277 6.1 7.0 0.00 0.17 0.17 31 1009.4
20260506010154 73 251 7.8 11.3 0.00 0.17 0.17 30 1009.1
20260506005651 73 236 7.8 8.7 0.00 0.17 0.17 30 1009.0
20260506005147 73 276 9.6 11.3 0.00 0.17 0.17 30 1009.1
20260506004643 74 256 8.7 9.6 0.00 0.17 0.17 29 1009.0
20260506004141 74 249 2.6 4.3 0.00 0.17 0.17 29 1008.8
20260506003637 74 257 6.1 7.8 0.00 0.17 0.17 29 1009.0
20260506003133 74 247 10.4 12.2 0.00 0.17 0.17 28 1008.9
20260506002629 74 278 7.8 11.3 0.00 0.17 0.17 28 1008.9
20260506002126 74 259 5.2 7.8 0.00 0.17 0.17 28 1008.6
20260506001621 74 249 10.4 13.0 0.00 0.17 0.17 28 1008.9
20260506001119 74 257 7.8 9.6 0.00 0.17 0.17 28 1008.7
20260506000616 75 228 10.4 13.0 0.00 0.17 0.17 28 1008.6
20260506000113 75 196 8.7 11.3 0.00 0.17 0.17 28 1008.8
20260505235612 75 251 7.8 8.7 0.00 0.17 0.17 28 1008.7
20260505235108 75 201 5.2 6.1 0.00 0.17 0.17 29 1008.4
20260505234605 75 156 7.8 9.6 0.00 0.17 0.17 29 1008.6
20260505234102 75 161 5.2 7.0 0.00 0.17 0.17 29 1008.3
20260505233600 75 177 6.1 7.0 0.00 0.17 0.17 29 1008.5
20260505233056 75 195 6.1 9.6 0.00 0.17 0.17 30 1008.6
20260505232555 75 209 9.6 12.2 0.00 0.17 0.17 29 1008.7
20260505232052 75 253 5.2 5.2 0.00 0.17 0.17 29 1008.5
20260505231549 75 200 6.1 7.0 0.00 0.17 0.17 30 1008.6
20260505231048 75 210 6.1 7.0 0.00 0.17 0.17 29 1008.7
20260505230545 75 185 5.2 6.1 0.00 0.17 0.17 29 1008.6
20260505230041 76 292 6.1 7.0 0.00 0.17 0.17 29 1008.5
20260505225537 75 156 5.2 7.8 0.00 0.17 0.17 29 1008.6
20260505225033 75 257 11.3 13.9 0.00 0.17 0.17 29 1008.7
20260505224531 75 222 11.3 14.8 0.00 0.17 0.17 28 1008.6
20260505224028 75 217 6.1 7.8 0.00 0.17 0.17 28 1008.8
20260505223525 76 266 3.5 6.1 0.00 0.17 0.17 29 1008.8
20260505223021 76 238 3.5 5.2 0.00 0.17 0.17 28 1009.1
20260505222517 76 228 2.6 4.3 0.00 0.17 0.17 29 1008.9
20260505222013 76 230 10.4 15.6 0.00 0.17 0.17 28 1009.0
20260505221511 75 229 8.7 11.3 0.00 0.17 0.17 29 1008.9
20260505221008 74 235 6.1 7.0 0.00 0.17 0.17 29 1008.9
20260505220504 74 255 6.1 7.8 0.00 0.17 0.17 32 1009.0
20260505220002 75 270 8.7 9.6 0.00 0.17 0.17 31 1009.1
20260505215500 74 181 7.8 9.6 0.00 0.17 0.17 32 1009.5
20260505214958 73 229 7.0 8.7 0.00 0.17 0.17 31 1009.5
20260505214456 74 242 11.3 15.6 0.00 0.17 0.17 32 1009.3
20260505213952 74 288 9.6 12.2 0.00 0.17 0.17 32 1009.6
20260505213450 75 270 11.3 13.0 0.00 0.17 0.17 32 1009.8
20260505212946 74 163 4.3 6.1 0.00 0.17 0.17 31 1009.5
20260505212443 74 238 9.6 13.0 0.00 0.17 0.17 31 1009.9
20260505211939 74 236 7.0 8.7 0.00 0.17 0.17 31 1009.6
20260505211437 74 194 11.3 13.9 0.00 0.17 0.17 31 1009.7
20260505210933 74 257 7.8 9.6 0.00 0.17 0.17 31 1010.0
20260505210431 74 263 12.2 13.9 0.00 0.17 0.17 31 1009.9
20260505205927 74 233 10.4 13.0 0.00 0.17 0.17 32 1009.6
20260505205426 74 238 7.8 11.3 0.00 0.17 0.17 33 1009.8
20260505204922 74 246 12.2 15.6 0.00 0.17 0.17 34 1009.7
20260505204420 74 242 7.8 8.7 0.00 0.17 0.17 35 1009.7
20260505203917 74 240 13.0 15.6 0.00 0.17 0.17 35 1009.9
20260505203413 73 272 6.1 7.8 0.00 0.17 0.17 36 1010.0
20260505202910 73 218 7.8 12.2 0.00 0.17 0.17 35 1009.7
20260505202406 73 229 10.4 12.2 0.00 0.17 0.17 35 1009.8
20260505201903 74 222 7.0 9.6 0.00 0.17 0.17 36 1009.8
20260505201400 75 165 7.8 11.3 0.00 0.17 0.17 36 1010.0
20260505200858 73 248 4.3 7.0 0.00 0.17 0.17 38 1010.0
20260505200355 73 165 5.2 7.0 0.00 0.17 0.17 39 1010.2
20260505195850 73 232 9.6 11.3 0.00 0.17 0.17 39 1010.2
20260505195348 73 233 9.6 11.3 0.00 0.17 0.17 39 1010.2
20260505194845 73 279 7.0 7.8 0.00 0.17 0.17 40 1010.3
20260505194342 73 224 6.1 7.0 0.00 0.17 0.17 42 1010.4
20260505193837 72 244 7.8 8.7 0.00 0.17 0.17 43 1010.2
20260505193336 71 215 7.8 8.7 0.00 0.17 0.17 45 1010.4
20260505192833 70 229 2.6 2.6 0.00 0.17 0.17 51 1010.3
20260505192331 72 306 3.5 4.3 0.00 0.17 0.17 48 1010.5
20260505191828 71 165 0.0 0.0 0.00 0.17 0.17 49 1010.5
20260505191327 70 238 4.3 5.2 0.00 0.17 0.17 50 1010.6
20260505190823 70 183 0.9 1.7 0.00 0.17 0.17 49 1010.4
20260505190319 70 250 6.1 7.0 0.00 0.17 0.17 50 1010.5
20260505185815 71 287 5.2 6.1 0.00 0.17 0.17 52 1010.8
20260505185311 70 166 3.5 4.3 0.00 0.17 0.17 50 1010.8
20260505184807 70 98 2.6 4.3 0.00 0.17 0.17 52 1010.8
20260505184304 69 202 2.6 2.6 0.00 0.17 0.17 52 1010.9
20260505183801 69 206 1.7 1.7 0.00 0.17 0.17 53 1011.3
20260505183259 69 195 2.6 2.6 0.00 0.17 0.17 54 1011.3
20260505182755 69 248 2.6 2.6 0.00 0.17 0.17 54 1011.2
20260505182252 71 260 1.7 1.7 0.00 0.17 0.17 51 1011.3
20260505181748 68 249 2.6 4.3 0.00 0.17 0.17 54 1011.4
20260505181246 67 251 5.2 6.1 0.00 0.17 0.17 56 1011.3
20260505180742 67 230 3.5 6.1 0.00 0.17 0.17 57 1011.4
20260505180239 67 193 1.7 1.7 0.00 0.17 0.17 58 1011.3
20260505175735 67 215 3.5 6.1 0.00 0.17 0.17 59 1011.6
20260505175232 67 202 1.7 1.7 0.00 0.17 0.17 58 1011.5
20260505174728 67 278 0.9 1.7 0.00 0.17 0.17 59 1011.4
20260505174226 66 255 2.6 2.6 0.00 0.17 0.17 59 1011.6
20260505173721 66 331 3.5 5.2 0.00 0.17 0.17 60 1011.4
20260505173219 67 240 3.5 4.3 0.00 0.17 0.17 60 1011.6
20260505172715 66 168 2.6 2.6 0.00 0.17 0.17 62 1011.7
20260505172212 66 235 1.7 1.7 0.00 0.17 0.17 60 1011.6
20260505171712 66 308 0.9 0.9 0.00 0.17 0.17 62 1011.7
20260505171210 69 282 3.5 4.3 0.00 0.17 0.17 57 1011.8
20260505170706 67 175 2.6 4.3 0.00 0.17 0.17 59 1011.6
20260505170203 67 172 5.2 6.1 0.00 0.17 0.17 59 1011.6
20260505165658 67 111 3.5 4.3 0.00 0.17 0.17 56 1011.8
20260505165154 67 184 2.6 2.6 0.00 0.17 0.17 61 1011.6
20260505164649 66 154 1.7 2.6 0.00 0.17 0.17 63 1011.6
20260505164147 66 143 3.5 4.3 0.00 0.17 0.17 64 1011.6
20260505163645 65 163 0.9 0.9 0.00 0.17 0.17 64 1011.6
20260505163143 64 209 2.6 2.6 0.00 0.17 0.17 67 1011.8
20260505162640 64 201 1.7 1.7 0.00 0.17 0.17 68 1011.8
20260505162138 63 240 0.0 0.9 0.00 0.17 0.17 69 1011.8
20260505161635 64 231 2.6 2.6 0.00 0.17 0.17 70 1011.7
20260505161132 63 196 0.0 0.0 0.00 0.17 0.17 72 1011.8
20260505160630 63 238 2.6 2.6 0.00 0.17 0.17 73 1011.8
20260505160127 63 243 2.6 2.6 0.00 0.17 0.17 72 1011.8
20260505153107 64 196 2.6 2.6 0.00 0.16 0.16 71 1011.4
20260505152603 63 216 1.7 1.7 0.00 0.16 0.16 72 1011.6
20260505152058 63 189 0.9 1.7 0.00 0.16 0.16 73 1011.6
20260505151554 63 201 0.0 0.9 0.00 0.16 0.16 75 1011.6
20260505151052 62 205 0.0 0.0 0.00 0.16 0.16 75 1011.5
20260505150548 62 11 0.0 0.0 0.00 0.16 0.16 75 1011.5
20260505140513 59 171 0.0 0.0 0.00 0.16 0.16 94 1011.2
20260505124926 58 172 0.0 0.0 0.00 0.16 0.16 97 1010.4
20260505124423 58 138 0.0 0.0 0.00 0.16 0.16 97 1010.3
20260505123919 58 121 0.0 0.0 0.00 0.16 0.16 97 1010.5
20260505123416 58 172 0.0 0.0 0.00 0.16 0.16 97 1010.9
20260505122912 58 199 0.0 0.0 0.00 0.16 0.16 96 1010.6
20260505122409 58 192 0.0 0.0 0.07 0.16 0.16 96 1010.5
20260505121906 58 176 0.0 0.0 0.00 0.15 0.15 96 1010.4
20260505121403 58 176 0.0 0.0 0.00 0.15 0.15 96 1010.4
20260505120859 58 176 0.0 0.0 0.00 0.15 0.15 96 1010.0
20260505120355 58 176 0.0 0.0 0.00 0.15 0.15 96 1010.1
20260505115854 58 176 0.0 0.0 0.00 0.15 0.15 96 1010.1
20260505115351 58 172 0.0 0.0 0.00 0.15 0.15 96 1010.1
20260505114849 57 154 0.0 0.0 0.00 0.15 0.15 96 1010.2
20260505114346 58 173 0.0 0.0 0.00 0.15 0.15 95 1010.2
20260505113842 57 176 0.0 0.0 0.00 0.15 0.15 95 1010.0
20260505113339 58 120 0.0 0.0 0.05 0.15 0.15 95 1010.0
20260505112834 58 173 0.0 0.0 0.05 0.15 0.15 95 1010.6
20260505112332 58 169 0.0 0.0 0.00 0.14 0.14 95 1010.6
20260505111827 58 163 0.9 0.9 0.00 0.14 0.14 95 1010.5
20260505111323 58 172 0.0 0.0 0.00 0.14 0.14 95 1010.5
20260505110819 58 153 0.0 0.0 0.00 0.14 0.14 95 1010.2
20260505110317 58 148 0.0 0.9 0.07 0.14 0.14 95 1010.5
20260505101751 58 64 1.7 2.6 0.07 0.12 0.12 96 1011.1
20260505101247 58 62 1.7 1.7 0.07 0.12 0.12 96 1011.5
20260505100743 58 152 0.0 0.9 0.00 0.11 0.11 96 1011.5
20260505100240 58 48 3.5 4.3 0.00 0.11 0.11 96 1011.6
20260505095736 58 142 0.9 1.7 0.00 0.11 0.11 96 1011.5
20260505095234 58 195 0.9 2.6 0.00 0.11 0.11 96 1011.6
20260505094729 58 156 0.9 0.9 0.00 0.11 0.11 96 1011.8
20260505094226 58 138 1.7 1.7 0.05 0.11 0.11 96 1011.7
20260505093722 58 84 1.7 2.6 0.12 0.11 0.11 95 1011.8
20260505093220 58 103 1.7 1.7 0.07 0.10 0.10 95 1011.3
20260505092716 58 143 0.0 0.9 0.05 0.09 0.09 95 1012.0
20260505092215 58 124 1.7 2.6 0.05 0.09 0.09 95 1012.4
20260505091712 58 81 1.7 1.7 0.00 0.08 0.08 95 1011.9
20260505091210 58 100 0.9 0.9 0.07 0.08 0.08 95 1012.0
20260505090707 58 87 2.6 4.3 0.07 0.08 0.08 95 1012.0
20260505090205 58 92 1.7 2.6 0.00 0.07 0.07 95 1012.0
20260505085702 58 101 1.7 1.7 0.00 0.07 0.07 95 1012.2
20260505085200 58 139 1.7 1.7 0.00 0.07 0.07 95 1012.5
20260505084657 58 55 1.7 1.7 0.07 0.07 0.07 96 1012.3
20260505084156 58 148 1.7 4.3 0.07 0.07 0.07 96 1012.5
20260505083653 58 73 0.9 1.7 0.00 0.06 0.06 96 1012.9
20260505083150 58 92 0.9 0.9 0.00 0.06 0.06 96 1013.0
20260505082646 58 94 2.6 2.6 0.00 0.06 0.06 96 1013.1
20260505082143 59 102 2.6 2.6 0.00 0.06 0.06 96 1013.6
20260505081638 59 173 0.9 0.9 0.00 0.06 0.06 96 1013.6
20260505081136 59 145 0.0 0.0 0.05 0.06 0.06 96 1013.4
20260505080633 59 168 0.0 0.0 0.05 0.06 0.06 95 1013.8
20260505080129 59 181 0.0 0.9 0.07 0.05 0.05 95 1013.6
20260505075625 59 83 2.6 2.6 0.07 0.05 0.05 95 1014.0
20260505075122 59 107 0.9 1.7 0.05 0.04 0.04 94 1013.9
20260505074619 59 130 1.7 2.6 0.12 0.04 0.04 94 1014.0
20260505074116 59 92 2.6 2.6 0.07 0.03 0.03 94 1014.1
20260505073614 59 181 0.9 0.9 0.07 0.03 0.03 94 1014.4
20260505073112 59 154 0.0 0.0 0.05 0.02 0.02 93 1014.2
20260505072607 59 151 0.0 0.0 0.05 0.02 0.02 93 1014.1
20260505072104 59 182 0.0 0.0 0.07 0.01 0.01 93 1013.9
20260505071559 59 171 0.0 0.0 0.07 0.01 0.01 93 1014.2
20260505071057 59 159 0.0 0.0 0.00 0.00 0.00 92 1014.2
20260505070554 59 154 0.0 0.0 0.05 0.00 0.00 92 1013.9
20260505070050 59 175 0.0 0.0 0.05 0.00 0.00 92 1014.0
20260505065546 59 174 0.0 0.0 0.07 0.19 0.19 92 1013.9
20260505065043 59 126 0.0 0.0 0.07 0.19 0.19 91 1013.8
20260505064540 59 163 0.0 0.0 0.00 0.18 0.18 91 1014.0
20260505064038 59 168 0.0 0.0 0.05 0.18 0.18 91 1013.7
20260505063535 59 164 0.0 0.0 0.05 0.18 0.18 91 1014.0
20260505063031 59 163 0.0 0.0 0.07 0.17 0.17 90 1013.8
20260505062528 59 93 0.9 1.7 0.12 0.17 0.17 90 1013.9
20260505062025 60 100 0.9 0.9 0.12 0.16 0.16 90 1014.0
20260505061523 60 146 0.0 0.9 0.14 0.15 0.15 89 1013.7
20260505061020 60 71 1.7 2.6 0.12 0.14 0.14 88 1013.7
20260505060518 60 156 0.9 0.9 0.12 0.13 0.13 87 1013.8
20260505060014 60 156 0.0 0.0 0.07 0.12 0.12 86 1014.0